Kimball, NE

2:01 AM MDT on August 25, 2016 (GMT -0600)
Kimball Municipal-Arraj

Weather History for KIBM - October, 2013

Change the Weather History Date:

Friday, October 25, 2013

  Actual Average (KSNY) Record (KSNY)
Temperature  
Mean Temperature 50 °F 47 °F  
Max Temperature 69 °F 62 °F 81 °F (2007)
Min Temperature 30 °F 32 °F 8 °F (1997)
Degree Days  
Heating Degree Days 16 18  
Month to date heating degree days 348  
Since 1 July heating degree days 488  
Cooling Degree Days 0 0  
Month to date cooling degree days 1  
Year to date cooling degree days 827  
Moisture  
Dew Point 31 °F    
Average Humidity 61    
Maximum Humidity 95    
Minimum Humidity 20    
Precipitation  
Precipitation 0.00 in 0.02 in 0.44 in (2011)
Month to date precipitation 0.89  
Year to date precipitation 17.30  
Sea Level Pressure  
Sea Level Pressure 30.15 in    
Wind  
Wind Speed 8 mph (WNW)    
Max Wind Speed 17 mph    
Max Gust Speed 20 mph    
Visibility 9 miles    
Events      
T = Trace of Precipitation, MM = Missing Value Source: NWS Daily Summary

Daily Weather History Graph

Daily Weather History Graph

Search for Another Location

Airport or City:

Trip Planner

Search our weather history database for the weather conditions in past years. The results will help you decide how hot, cold, wet, or windy it might be!

Date:

Astronomy

Oct. 25, 2013 Rise Set
Actual Time 8:17 AM CDT 6:58 PM CDT
Civil Twilight 7:49 AM CDT 7:27 PM CDT
Nautical Twilight 7:17 AM CDT 7:59 PM CDT
Astronomical Twilight 6:45 AM CDT 8:31 PM CDT
Moon No Moon Rise 2:00 PM CDT
Length of Visible Light 11h 37m
Length of Day
10h 40m
Waning Gibbous, 62% of the Moon is Illuminated
Oct 25
Waning Gibbous
Oct 26
Last Quarter
Nov 3
New
Nov 9
First Quarter
Nov 17
Full

Hourly Weather History & Observations

Time (CDT) Temp. Windchill Dew Point Humidity Pressure Visibility Wind Dir Wind Speed Gust Speed Precip Events Conditions
12:15 AM 35.8 °F 29.4 °F 33.1 °F 90% 30.23 in 10.0 mi South 8.1 mph - N/A   Clear
12:35 AM 35.4 °F 30.5 °F 32.9 °F 91% 30.23 in 10.0 mi South 5.8 mph - N/A   Clear
12:55 AM 34.7 °F 29.6 °F 32.5 °F 92% 30.23 in 10.0 mi South 5.8 mph - N/A   Clear
1:15 AM 34.7 °F 28.8 °F 32.5 °F 92% 30.22 in 10.0 mi South 6.9 mph - N/A   Clear
1:35 AM 33.8 °F 26.4 °F 32.0 °F 93% 30.22 in 7.0 mi South 9.2 mph - N/A   Clear
1:55 AM 33.4 °F 27.3 °F 32.0 °F 94% 30.21 in 7.0 mi South 6.9 mph - N/A   Clear
2:15 AM 33.1 °F 26.1 °F 31.6 °F 94% 30.21 in 7.0 mi South 8.1 mph - N/A   Clear
2:35 AM 32.9 °F 26.7 °F 31.5 °F 94% 30.21 in 7.0 mi South 6.9 mph - N/A   Clear
2:55 AM 33.1 °F 30.0 °F 31.8 °F 95% 30.21 in 7.0 mi SSW 3.5 mph - N/A   Clear
3:15 AM 33.3 °F 26.4 °F 31.8 °F 94% 30.20 in 7.0 mi SSW 8.1 mph - N/A   Clear
3:35 AM 33.1 °F 27.7 °F 31.8 °F 95% 30.20 in 7.0 mi SW 5.8 mph - N/A   Clear
3:55 AM 32.9 °F 29.8 °F 31.1 °F 93% 30.20 in 7.0 mi SW 3.5 mph - N/A   Clear
4:15 AM 32.2 °F 27.7 °F 30.7 °F 94% 30.19 in 7.0 mi SW 4.6 mph - N/A   Clear
4:35 AM 31.1 °F 24.5 °F 29.1 °F 92% 30.19 in 7.0 mi WSW 6.9 mph - N/A   Clear
4:55 AM 31.5 °F 25.8 °F 29.3 °F 92% 30.19 in 10.0 mi WSW 5.8 mph - N/A   Clear
5:15 AM 31.1 °F 26.4 °F 29.1 °F 92% 30.19 in 10.0 mi SW 4.6 mph - N/A   Clear
5:35 AM 30.9 °F 24.3 °F 28.8 °F 92% 30.17 in 10.0 mi WSW 6.9 mph - N/A   Clear
5:55 AM 30.9 °F 24.3 °F 28.6 °F 91% 30.17 in 10.0 mi WSW 6.9 mph - N/A   Clear
6:15 AM 31.1 °F 23.7 °F 29.1 °F 92% 30.17 in 10.0 mi SW 8.1 mph - N/A   Clear
6:35 AM 31.1 °F 22.4 °F 29.1 °F 92% 30.17 in 10.0 mi SW 10.4 mph - N/A   Clear
6:55 AM 31.8 °F 24.6 °F 29.5 °F 91% 30.16 in 10.0 mi SW 8.1 mph - N/A   Clear
7:15 AM 32.4 °F 26.0 °F 30.4 °F 92% 30.16 in 10.0 mi WSW 6.9 mph - N/A   Clear
7:35 AM 32.7 °F 26.4 °F 30.2 °F 90% 30.16 in 10.0 mi WSW 6.9 mph - N/A   Clear
7:55 AM 32.7 °F 27.3 °F 30.7 °F 92% 30.15 in 10.0 mi WSW 5.8 mph - N/A   Clear
8:15 AM 33.4 °F 26.6 °F 31.3 °F 92% 30.14 in 10.0 mi WSW 8.1 mph - N/A   Clear
8:35 AM 33.3 °F 27.1 °F 31.1 °F 92% 30.14 in 5.0 mi West 6.9 mph - N/A   Clear
8:55 AM 34.2 °F 25.2 °F 32.0 °F 92% 30.14 in 5.0 mi West 12.7 mph - N/A   Clear
9:15 AM 37.0 °F 31.0 °F 33.6 °F 87% 30.14 in 5.0 mi West 8.1 mph - N/A   Clear
9:35 AM 39.4 °F 33.8 °F 35.8 °F 87% 30.14 in 5.0 mi West 8.1 mph - N/A   Clear
9:55 AM 42.1 °F 36.6 °F 37.2 °F 83% 30.15 in 5.0 mi WSW 9.2 mph - N/A   Haze
10:15 AM 45.9 °F 40.8 °F 39.7 °F 79% 30.15 in 5.0 mi West 10.4 mph - N/A   Haze
10:35 AM 50.2 °F - 40.6 °F 70% 30.15 in 10.0 mi WSW 10.4 mph - N/A   Clear
10:55 AM 52.9 °F - 41.9 °F 66% 30.15 in 7.0 mi West 10.4 mph - N/A   Clear
11:15 AM 56.3 °F - 38.8 °F 52% 30.15 in 10.0 mi West 11.5 mph - N/A   Clear
11:35 AM 58.6 °F - 37.0 °F 45% 30.14 in 10.0 mi West 9.2 mph - N/A   Clear
11:55 AM 59.9 °F - 32.4 °F 35% 30.13 in 10.0 mi West 10.4 mph - N/A   Clear
12:15 PM 60.8 °F - 34.0 °F 37% 30.13 in 10.0 mi WNW 8.1 mph - N/A   Clear
12:35 PM 62.4 °F - 33.1 °F 33% 30.13 in 10.0 mi NW 9.2 mph - N/A   Clear
12:55 PM 64.6 °F - 31.8 °F 29% 30.12 in 10.0 mi NW 11.5 mph - N/A   Clear
1:15 PM 66.4 °F - 31.3 °F 27% 30.12 in 10.0 mi NW 10.4 mph - N/A   Clear
1:35 PM 67.6 °F - 27.7 °F 22% 30.11 in 10.0 mi North 9.2 mph - N/A   Clear
1:55 PM 68.9 °F - 26.6 °F 20% 30.11 in 10.0 mi NNW 8.1 mph - N/A   Clear
2:15 PM 69.6 °F - 27.1 °F 20% 30.10 in 10.0 mi NNW 12.7 mph 17.3 mph N/A   Clear
2:35 PM 69.6 °F - 28.9 °F 22% 30.09 in 10.0 mi NNW 11.5 mph - N/A   Clear
2:55 PM 69.3 °F - 30.0 °F 23% 30.08 in 10.0 mi North 15.0 mph - N/A   Clear
3:15 PM 68.4 °F - 28.2 °F 22% 30.08 in 10.0 mi NNW 15.0 mph 19.6 mph N/A   Clear
3:35 PM 67.6 °F - 26.1 °F 21% 30.08 in 10.0 mi NNW 16.1 mph - N/A   Clear
3:55 PM 68.4 °F - 26.2 °F 21% 30.08 in 10.0 mi NNW 12.7 mph 19.6 mph N/A   Clear
4:15 PM 68.0 °F - 25.5 °F 20% 30.08 in 10.0 mi NNW 12.7 mph - N/A   Clear
4:35 PM 67.5 °F - 25.5 °F 21% 30.08 in 10.0 mi NNW 13.8 mph 19.6 mph N/A   Clear
4:55 PM 67.5 °F - 26.2 °F 21% 30.08 in 10.0 mi NNW 11.5 mph - N/A   Clear
5:15 PM 67.1 °F - 26.1 °F 21% 30.08 in 10.0 mi NNW 12.7 mph 18.4 mph N/A   Clear
5:35 PM 66.2 °F - 23.9 °F 20% 30.08 in 10.0 mi NNW 17.3 mph - N/A   Clear
5:55 PM 64.9 °F - 26.2 °F 23% 30.09 in 10.0 mi NNW 12.7 mph 18.4 mph N/A   Clear
6:15 PM 63.3 °F - 29.1 °F 28% 30.10 in 10.0 mi NNW 9.2 mph - N/A   Clear
6:35 PM 61.0 °F - 29.5 °F 30% 30.10 in 10.0 mi NNW 8.1 mph - N/A   Clear
6:55 PM 57.6 °F - 30.7 °F 36% 30.10 in 10.0 mi NNW 6.9 mph - N/A   Clear
7:15 PM 51.8 °F - 32.2 °F 47% 30.10 in 10.0 mi NW 5.8 mph - N/A   Clear
7:35 PM 50.0 °F - 32.7 °F 52% 30.11 in 10.0 mi WNW 6.9 mph - N/A   Clear
7:55 PM 48.9 °F - 33.3 °F 55% 30.12 in 10.0 mi NW 9.2 mph - N/A   Clear
8:15 PM 54.9 °F - 32.0 °F 42% 30.13 in 10.0 mi NW 10.4 mph - N/A   Clear
8:35 PM 51.8 °F - 32.0 °F 47% 30.14 in 10.0 mi NNW 9.2 mph - N/A   Clear
8:55 PM 50.7 °F - 32.0 °F 49% 30.15 in 10.0 mi NNW 9.2 mph - N/A   Clear
9:15 PM 49.1 °F - 31.6 °F 51% 30.15 in 10.0 mi NNW 9.2 mph - N/A   Clear
9:35 PM 49.6 °F - 30.9 °F 49% 30.16 in 10.0 mi NNW 9.2 mph - N/A   Clear
9:55 PM 49.3 °F - 30.6 °F 49% 30.16 in 10.0 mi NNW 9.2 mph - N/A   Clear
10:15 PM 46.9 °F - 31.1 °F 54% 30.17 in 10.0 mi NNW 9.2 mph - N/A   Clear
10:35 PM 45.7 °F 40.6 °F 31.5 °F 58% 30.17 in 10.0 mi NNW 10.4 mph - N/A   Clear
10:55 PM 45.7 °F 40.6 °F 31.5 °F 58% 30.18 in 10.0 mi NW 10.4 mph - N/A   Clear
11:15 PM 45.0 °F 39.3 °F 31.6 °F 60% 30.19 in 10.0 mi NNW 11.5 mph - N/A   Clear
11:35 PM 46.2 °F 40.5 °F 31.8 °F 57% 30.19 in 10.0 mi NNW 12.7 mph - N/A   Clear
11:55 PM 47.3 °F - 32.0 °F 55% 30.20 in 10.0 mi NNW 12.7 mph - N/A   Clear